GW5841 Weather Reports


time (UTC)temp
C
wind
direction
speed
KPH
gust
KPH
rain 1hr
cm
rain 24hr
cm
rain mn
cm
humidity
%
barometer
mb
20260507130758 6 78 1.6 3.2 0.00 0.00 0.00 96 1002.6
20260507130256 6 66 3.2 3.2 0.00 0.00 0.00 97 1002.8
20260507125755 6 85 3.2 4.8 0.00 0.00 0.00 97 1002.6
20260507125252 6 50 8.0 8.0 0.00 0.00 0.00 97 1002.6
20260507124749 6 65 4.8 8.0 0.00 0.00 0.00 97 1002.6
20260507124245 6 60 6.4 6.4 0.00 0.00 0.00 98 1002.5
20260507123744 5 70 4.8 6.4 0.00 0.00 0.00 98 1002.6
20260507123241 5 76 6.4 8.0 0.00 0.00 0.00 98 1002.6
20260507122736 5 72 6.4 8.0 0.00 0.00 0.00 99 1002.7
20260507122232 5 79 6.4 8.0 0.00 0.00 0.00 99 1002.3
20260507121728 5 49 4.8 8.0 0.00 0.00 0.00 99 1002.6
20260507121224 5 74 8.0 8.0 0.00 0.00 0.00 99 1002.7
20260507120720 5 120 3.2 6.4 0.00 0.00 0.00 99 1002.5
20260507120218 5 100 3.2 3.2 0.00 0.00 0.00 99 1002.6
20260507115713 5 93 3.2 4.8 0.00 0.00 0.00 99 1002.3
20260507115209 5 74 4.8 9.7 0.00 0.00 0.00 99 1002.3
20260507114705 5 75 4.8 9.7 0.00 0.00 0.00 99 1002.2
20260507114203 5 56 8.0 8.0 0.00 0.00 0.00 99 1002.1
20260507113700 5 83 6.4 6.4 0.00 0.00 0.00 99 1002.4
20260507113157 5 60 3.2 6.4 0.00 0.00 0.00 99 1002.4
20260507112654 4 48 8.0 12.9 0.00 0.00 0.00 99 1002.4
20260507112151 4 56 4.8 11.3 0.00 0.00 0.00 99 1002.4
20260507111648 4 53 6.4 9.7 0.00 0.00 0.00 99 1002.4
20260507111145 4 82 8.0 9.7 0.00 0.00 0.00 99 1002.3
20260507110641 4 58 4.8 6.4 0.00 0.00 0.00 99 1002.4
20260507110138 3 53 6.4 8.0 0.00 0.00 0.00 99 1002.4
20260507105635 3 72 6.4 9.7 0.00 0.00 0.00 99 1002.2
20260507105131 4 71 11.3 14.5 0.00 0.00 0.00 99 1002.2
20260507104628 3 62 4.8 11.3 0.00 0.00 0.00 99 1002.3
20260507104125 3 67 9.7 9.7 0.00 0.00 0.00 99 1002.3
20260507103621 3 108 1.6 4.8 0.00 0.00 0.00 99 1002.3
20260507103118 3 59 4.8 4.8 0.00 0.00 0.00 99 1002.3
20260507102614 3 62 11.3 12.9 0.00 0.00 0.00 99 1002.3
20260507102110 3 85 4.8 4.8 0.00 0.00 0.00 99 1002.3
20260507101606 3 83 6.4 9.7 0.00 0.00 0.00 99 1002.2
20260507101102 3 68 6.4 8.0 0.00 0.00 0.00 99 1002.1
20260507100559 3 69 9.7 16.1 0.00 0.00 0.00 99 1002.1
20260507100058 3 72 11.3 14.5 0.00 0.00 0.00 99 1002.1
20260507095555 3 77 12.9 12.9 0.00 0.00 0.00 99 1002.0
20260507095052 3 29 3.2 6.4 0.00 0.00 0.00 98 1002.2
20260507094548 3 72 8.0 9.7 0.00 0.00 0.00 98 1002.1
20260507094045 3 83 3.2 6.4 0.00 0.00 0.00 98 1002.3
20260507093543 3 103 3.2 4.8 0.00 0.00 0.00 98 1002.2
20260507093041 3 79 6.4 14.5 0.00 0.00 0.00 98 1002.1
20260507092537 3 61 9.7 14.5 0.00 0.00 0.00 98 1002.0
20260507092034 3 74 11.3 11.3 0.00 0.00 0.00 98 1002.2
20260507091531 3 53 9.7 14.5 0.00 0.00 0.00 98 1001.8
20260507091027 3 77 8.0 8.0 0.00 0.00 0.00 98 1002.0
20260507090523 3 38 1.6 6.4 0.00 0.00 0.00 98 1002.1
20260507090020 3 114 3.2 3.2 0.00 0.00 0.00 98 1002.2
20260507085517 4 61 6.4 8.0 0.00 0.00 0.00 98 1002.1
20260507085014 4 74 6.4 6.4 0.00 0.00 0.00 98 1002.1
20260507084510 4 73 6.4 8.0 0.00 0.00 0.00 98 1002.1
20260507084007 4 81 6.4 9.7 0.00 0.00 0.00 98 1002.3
20260507083503 4 72 6.4 8.0 0.00 0.00 0.00 98 1002.3
20260507083000 4 92 4.8 6.4 0.00 0.00 0.00 98 1002.4
20260507082457 4 103 1.6 3.2 0.00 0.00 0.00 98 1002.4
20260507081953 4 86 3.2 4.8 0.00 0.00 0.00 98 1002.4
20260507081449 4 74 3.2 4.8 0.00 0.00 0.00 98 1002.3
20260507080946 4 66 3.2 3.2 0.00 0.00 0.00 98 1002.4
20260507080442 4 53 3.2 4.8 0.00 0.00 0.00 98 1002.2
20260507075937 4 0 0.0 9.7 0.00 0.00 0.00 98 1002.1
20260507075434 4 299 3.2 6.4 0.00 0.00 0.00 98 1002.0
20260507074931 4 39 3.2 3.2 0.00 0.00 0.00 98 1002.1
20260507074427 4 304 0.0 3.2 0.00 0.00 0.00 98 1002.0
20260507073925 4 58 0.0 3.2 0.00 0.00 0.00 98 1002.1
20260507073422 4 53 1.6 3.2 0.00 0.00 0.00 98 1002.1
20260507072919 4 26 0.0 3.2 0.00 0.00 0.00 98 1002.1
20260507072416 5 110 3.2 3.2 0.00 0.00 0.00 98 1002.0
20260507071914 4 104 3.2 4.8 0.00 0.00 0.00 98 1001.9
20260507071410 5 102 0.0 3.2 0.00 0.00 0.00 98 1001.8
20260507070906 5 30 0.0 3.2 0.00 0.00 0.00 98 1002.0
20260507070404 5 327 1.6 4.8 0.00 0.00 0.00 98 1002.0
20260507065901 5 89 1.6 3.2 0.00 0.00 0.00 98 1002.1
20260507065357 5 104 0.0 6.4 0.00 0.00 0.00 98 1002.0
20260507064855 5 113 3.2 4.8 0.00 0.00 0.00 98 1001.9
20260507064353 5 60 3.2 3.2 0.00 0.00 0.00 98 1002.0
20260507063851 5 283 3.2 3.2 0.00 0.00 0.00 98 1002.3
20260507063347 5 282 4.8 4.8 0.00 0.00 0.00 98 1002.0
20260507062844 5 296 1.6 3.2 0.00 0.00 0.00 98 1002.2
20260507062341 5 286 3.2 3.2 0.00 0.00 0.00 98 1002.1
20260507061839 5 355 0.0 3.2 0.00 0.00 0.00 97 1002.1
20260507061337 5 253 0.0 4.8 0.00 0.00 0.00 97 1002.1
20260507060835 5 17 0.0 1.6 0.00 0.00 0.00 97 1002.2
20260507060331 5 60 0.0 3.2 0.00 0.00 0.00 97 1002.2
20260507055828 5 325 0.0 3.2 0.00 0.00 0.00 97 1002.5
20260507055323 5 334 0.0 3.2 0.00 0.00 0.00 97 1002.3
20260507054820 5 287 3.2 3.2 0.00 0.00 0.00 97 1002.6
20260507054316 5 329 1.6 3.2 0.00 0.00 0.00 96 1002.5
20260507053814 5 325 1.6 6.4 0.00 0.00 0.00 96 1002.5
20260507053311 5 267 3.2 6.4 0.00 0.00 0.00 96 1002.6
20260507052810 5 100 0.0 6.4 0.00 0.00 0.00 96 1002.0
20260507052307 5 303 3.2 3.2 0.00 0.00 0.00 96 1002.2
20260507051804 5 317 4.8 4.8 0.00 0.00 0.00 96 1002.5
20260507051301 5 316 3.2 6.4 0.00 0.00 0.00 96 1002.5
20260507050753 5 35 0.0 4.8 0.00 0.00 0.00 96 1002.4
20260507050249 5 269 1.6 8.0 0.00 0.00 0.00 96 1002.5
20260507045746 5 290 3.2 6.4 0.00 0.00 0.00 96 1002.5
20260507045243 5 284 6.4 11.3 0.00 0.00 0.00 97 1002.5
20260507044740 5 267 6.4 11.3 0.00 0.00 0.00 97 1002.6
20260507044236 5 287 11.3 14.5 0.00 0.00 0.00 97 1002.3
20260507043732 5 350 3.2 6.4 0.00 0.00 0.00 97 1002.4
20260507043229 5 44 3.2 4.8 0.00 0.00 0.00 97 1002.6
20260507042725 5 16 0.0 3.2 0.00 0.00 0.00 97 1002.6
20260507042225 5 38 0.0 4.8 0.00 0.00 0.00 97 1002.4
20260507041723 5 38 0.0 3.2 0.00 0.00 0.00 97 1002.4
20260507041220 5 323 3.2 4.8 0.00 0.00 0.00 97 1002.4
20260507040717 5 101 3.2 3.2 0.00 0.00 0.00 97 1002.5
20260507040213 5 256 3.2 6.4 0.00 0.00 0.00 97 1002.5
20260507035709 5 274 3.2 4.8 0.00 2.18 2.18 97 1002.5
20260507035205 5 352 3.2 4.8 0.00 2.18 2.18 97 1002.7
20260507034702 5 339 4.8 9.7 0.00 2.18 2.18 97 1002.7
20260507034159 5 298 3.2 4.8 0.00 2.18 2.18 98 1002.7
20260507033658 5 179 3.2 8.0 0.00 2.18 2.18 97 1002.8
20260507033154 5 273 3.2 3.2 0.00 2.18 2.18 97 1002.9
20260507032652 5 27 0.0 3.2 0.00 2.18 2.18 97 1002.6
20260507032147 5 80 3.2 6.4 0.00 2.18 2.18 97 1002.4
20260507031645 5 88 3.2 4.8 0.00 2.18 2.18 97 1002.4
20260507031141 5 76 3.2 3.2 0.00 2.18 2.18 97 1002.5
20260507030638 6 74 3.2 4.8 0.05 2.18 2.18 97 1002.7
20260507030136 6 283 0.0 3.2 0.05 2.18 2.18 97 1003.1
20260507025633 6 256 1.6 3.2 0.00 2.16 2.16 97 1002.9
20260507025129 6 71 1.6 4.8 0.00 2.16 2.16 97 1002.9
20260507024628 6 336 0.0 3.2 0.00 2.16 2.16 96 1002.8
20260507024125 6 259 0.0 4.8 0.00 2.16 2.16 96 1002.8
20260507023620 6 238 3.2 4.8 0.00 2.16 2.16 96 1003.1
20260507023118 6 276 3.2 4.8 0.05 2.16 2.16 97 1003.1
20260507022614 6 233 1.6 4.8 0.05 2.16 2.16 96 1002.8
20260507022110 6 125 1.6 3.2 0.00 2.16 2.16 96 1002.9
20260507021606 6 45 3.2 3.2 0.05 2.16 2.16 96 1003.0
20260507021102 6 37 3.2 3.2 0.00 2.16 2.16 96 1003.1
20260507020601 6 253 1.6 3.2 0.00 2.16 2.16 96 1003.0
20260507020056 6 281 3.2 12.9 0.05 2.16 2.16 96 1003.3
20260507015555 6 282 3.2 6.4 0.05 2.16 2.16 96 1003.1
20260507015052 6 251 3.2 9.7 0.05 2.13 2.13 96 1002.9
20260507014549 6 293 9.7 11.3 0.13 2.13 2.13 96 1003.1
20260507014044 6 190 3.2 9.7 0.05 2.13 2.13 96 1003.1
20260507013541 6 0 3.2 17.7 0.00 2.11 2.11 97 1003.1
20260507013039 6 260 8.0 12.9 0.00 2.11 2.11 97 1003.1
20260507012536 6 288 4.8 6.4 0.05 2.11 2.11 97 1002.9
20260507012032 6 174 3.2 4.8 0.05 2.11 2.11 97 1002.9
20260507011530 6 38 0.0 1.6 0.00 2.11 2.11 97 1002.8
20260507011025 6 39 0.0 3.2 0.00 2.11 2.11 97 1002.7
20260507010520 6 71 3.2 3.2 0.00 2.11 2.11 97 1002.9
20260507010017 6 41 3.2 4.8 0.05 2.11 2.11 97 1002.5
20260507005514 6 68 4.8 4.8 0.13 2.11 2.11 97 1002.4
20260507005010 6 72 3.2 6.4 0.13 2.11 2.11 97 1002.4
20260507004508 6 73 3.2 4.8 0.05 2.08 2.08 97 1002.6
20260507004005 6 22 0.0 1.6 0.05 2.08 2.08 97 1002.6
20260507003500 6 326 0.0 0.0 0.05 2.08 2.08 97 1002.5
20260507002955 6 117 1.6 3.2 0.00 2.06 2.06 97 1002.2
20260507002452 6 317 4.8 6.4 0.00 2.06 2.06 97 1002.4
20260507001949 6 60 0.0 3.2 0.00 2.06 2.06 97 1002.2
20260507001445 6 18 0.0 6.4 0.05 2.06 2.06 97 1001.8
20260507000943 6 86 3.2 3.2 0.05 2.06 2.06 96 1002.1
20260507000439 6 105 3.2 3.2 0.13 2.06 2.06 96 1002.0
20260506235935 6 41 4.8 8.0 0.23 2.06 2.06 96 1001.7
20260506235433 6 67 4.8 6.4 0.23 2.03 2.03 96 1001.7
20260506234932 6 82 6.4 8.0 0.23 2.03 2.03 96 1001.6
20260506234431 6 104 4.8 4.8 0.05 1.98 1.98 96 1001.8
20260506233928 6 77 3.2 6.4 0.05 1.98 1.98 96 1001.7
20260506233425 6 56 6.4 8.0 0.05 1.98 1.98 96 1001.8
20260506232921 6 92 4.8 6.4 0.00 1.98 1.98 96 1001.9
20260506232418 6 87 4.8 6.4 0.00 1.98 1.98 95 1001.8
20260506231913 6 94 3.2 4.8 0.00 1.98 1.98 95 1001.4
20260506231411 6 91 3.2 11.3 0.00 1.98 1.98 95 1001.6
20260506230908 6 64 9.7 9.7 0.00 1.98 1.98 95 1001.5
20260506230405 6 327 4.8 8.0 0.00 1.98 1.98 95 1001.6
20260506225901 6 348 8.0 8.0 0.00 1.98 1.98 95 1001.5
20260506225359 6 329 8.0 9.7 0.00 1.98 1.98 95 1001.3
20260506224855 6 67 9.7 9.7 0.00 1.98 1.98 94 1001.5
20260506224353 6 81 6.4 6.4 0.00 1.98 1.98 94 1001.4
20260506223849 6 15 3.2 8.0 0.00 1.98 1.98 94 1001.2
20260506223344 6 348 4.8 8.0 0.00 1.98 1.98 94 1001.3
20260506222842 6 221 4.8 6.4 0.00 1.98 1.98 94 1001.1
20260506222337 6 253 4.8 8.0 0.00 1.98 1.98 95 1001.1
20260506221835 6 252 3.2 9.7 0.00 1.98 1.98 95 1001.0
20260506221332 6 347 8.0 14.5 0.00 1.98 1.98 95 1000.9
20260506220830 6 335 3.2 9.7 0.00 1.98 1.98 95 1001.0
20260506220325 7 97 3.2 11.3 0.00 1.98 1.98 95 1000.7
20260506215822 7 66 0.0 4.8 0.00 1.98 1.98 95 1001.0
20260506215318 7 299 8.0 20.9 0.00 1.98 1.98 95 1000.7
20260506214814 7 9 1.6 17.7 0.00 1.98 1.98 95 1000.8
20260506214311 7 357 6.4 14.5 0.00 1.98 1.98 96 1000.9
20260506213809 7 260 3.2 3.2 0.00 1.98 1.98 96 1000.9
20260506213306 7 39 4.8 6.4 0.00 1.98 1.98 96 1000.8
20260506212803 7 331 3.2 8.0 0.00 1.98 1.98 96 1000.8
20260506212259 7 10 4.8 6.4 0.05 1.98 1.98 96 1000.8
20260506211754 7 314 4.8 6.4 0.05 1.98 1.98 96 1000.7
20260506211251 7 3 3.2 8.0 0.00 1.96 1.96 96 1000.7
20260506210748 7 330 12.9 12.9 0.05 1.96 1.96 96 1000.7
20260506210244 7 317 1.6 11.3 0.18 1.96 1.96 96 1000.7
20260506205742 7 303 3.2 9.7 0.13 1.93 1.93 96 1000.6
20260506205237 7 295 3.2 8.0 0.48 1.93 1.93 95 1000.6
20260506204734 7 338 1.6 11.3 0.43 1.91 1.91 95 1000.6
20260506204232 7 338 6.4 16.1 0.13 1.85 1.85 95 1000.8
20260506203731 7 12 3.2 19.3 0.13 1.83 1.83 95 1000.7
20260506203227 7 334 9.7 16.1 0.13 1.83 1.83 95 1000.6
20260506202725 7 329 9.7 17.7 0.13 1.83 1.83 95 1000.5
20260506202221 7 187 3.2 12.9 0.05 1.80 1.80 95 1000.2
20260506201718 7 358 8.0 19.3 0.05 1.80 1.80 95 1000.4
20260506201215 7 6 4.8 12.9 0.05 1.80 1.80 95 1000.6
20260506200711 7 27 12.9 19.3 0.00 1.78 1.78 95 1000.5
20260506200208 7 2 4.8 11.3 0.00 1.78 1.78 95 1000.5
20260506195704 7 303 11.3 11.3 0.00 1.78 1.78 95 1000.5
20260506195201 7 46 8.0 9.7 0.13 1.78 1.78 95 1000.7
20260506194658 7 54 6.4 11.3 0.13 1.78 1.78 95 1000.6
20260506194154 7 334 4.8 11.3 0.05 1.78 1.78 95 1000.4
20260506193652 7 320 6.4 12.9 0.00 1.75 1.75 95 1000.6
20260506193149 8 279 8.0 8.0 0.00 1.75 1.75 95 1000.4
20260506192646 8 341 6.4 17.7 0.00 1.75 1.75 94 1000.6
20260506192142 8 70 3.2 9.7 0.00 1.75 1.75 94 1000.5
20260506191639 8 337 1.6 4.8 0.00 1.75 1.75 95 1000.5
20260506191135 8 40 9.7 11.3 0.00 1.75 1.75 94 1000.6
20260506190632 8 349 4.8 14.5 0.00 1.75 1.75 95 1000.6
20260506190129 8 305 6.4 12.9 0.00 1.75 1.75 95 1000.6
20260506185626 7 293 6.4 14.5 0.00 1.75 1.75 95 1000.5
20260506185122 7 104 3.2 14.5 0.00 1.75 1.75 96 1000.6
20260506184620 7 350 6.4 24.1 0.00 1.75 1.75 95 1000.7
20260506184117 7 321 3.2 17.7 0.05 1.75 1.75 96 1000.7
20260506183614 8 23 8.0 11.3 0.05 1.75 1.75 97 1000.6
20260506183109 7 232 1.6 9.7 0.13 1.75 1.75 97 1000.9
20260506182607 7 79 4.8 11.3 0.18 1.75 1.75 97 1000.9
20260506182104 7 288 9.7 17.7 0.18 1.73 1.73 96 1001.0
20260506181602 7 215 1.6 8.0 0.18 1.70 1.70 96 1001.3
20260506181059 7 115 6.4 9.7 0.23 1.70 1.70 96 1001.0
20260506180555 7 316 4.8 6.4 0.18 1.68 1.68 96 1001.0
20260506180052 8 267 9.7 9.7 0.18 1.65 1.65 96 1000.9
20260506175548 8 88 4.8 12.9 0.13 1.65 1.65 96 1001.2
20260506175045 8 313 6.4 9.7 0.18 1.63 1.63 96 1001.2
20260506174544 8 286 6.4 16.1 0.18 1.63 1.63 96 1001.2
20260506174039 8 352 3.2 20.9 0.23 1.60 1.60 96 1001.1
20260506173537 8 0 6.4 19.3 0.30 1.60 1.60 95 1001.5
20260506173034 8 308 16.1 20.9 0.43 1.55 1.55 95 1001.2
20260506172531 8 343 9.7 16.1 0.48 1.55 1.55 95 1001.3
20260506172027 10 330 16.1 20.9 0.36 1.50 1.50 93 1001.3
20260506171525 10 151 3.2 6.4 0.18 1.45 1.45 94 1001.1
20260506171022 12 311 19.3 19.3 0.13 1.42 1.42 91 1000.9
20260506170520 13 53 4.8 6.4 0.23 1.42 1.42 96 1001.2
20260506170017 13 36 9.7 9.7 0.53 1.40 1.40 96 1001.0
20260506165515 13 40 3.2 6.4 0.84 1.37 1.37 96 1001.0
20260506165011 13 155 3.2 8.0 0.84 1.32 1.32 95 1001.0
20260506164508 13 103 1.6 6.4 0.36 1.22 1.22 96 1000.9
20260506164006 13 28 3.2 9.7 0.23 1.19 1.19 96 1001.0
20260506163501 13 28 3.2 8.0 0.23 1.17 1.17 96 1000.8
20260506162956 13 126 9.7 14.5 0.23 1.14 1.14 95 1000.9
20260506162454 13 131 12.9 12.9 0.23 1.12 1.12 95 1001.1
20260506161945 13 57 6.4 11.3 0.18 1.09 1.09 96 1001.1
20260506161443 13 120 12.9 16.1 0.18 1.07 1.07 95 1001.2
20260506160935 13 138 14.5 17.7 0.05 1.07 1.07 96 1001.4
20260506160432 13 59 16.1 20.9 0.05 1.04 1.04 96 1001.3
20260506155929 13 89 6.4 11.3 0.13 1.04 1.04 96 1001.4
20260506155426 12 115 12.9 25.7 0.13 1.04 1.04 96 1001.5
20260506153548 12 61 8.0 9.7 0.18 0.99 0.99 97 1001.8
20260506153046 12 107 4.8 12.9 0.13 0.97 0.97 97 1001.8
20260506152543 12 109 1.6 14.5 0.18 0.97 0.97 97 1002.0
20260506152041 12 56 9.7 14.5 0.18 0.94 0.94 98 1001.7
20260506151539 12 72 6.4 9.7 0.18 0.94 0.94 98 1001.9
20260506151035 12 116 11.3 22.5 0.13 0.91 0.91 98 1001.8
20260506150532 12 151 14.5 16.1 0.18 0.89 0.89 98 1002.1
20260506150029 12 7 0.0 17.7 0.13 0.89 0.89 99 1002.3
20260506145525 12 96 3.2 6.4 0.13 0.86 0.86 99 1002.3
20260506145023 11 65 3.2 8.0 0.13 0.86 0.86 99 1002.2
20260506144519 11 61 11.3 11.3 0.13 0.86 0.86 99 1002.2
20260506144017 11 345 0.0 8.0 0.18 0.84 0.84 98 1002.3
20260506143514 11 63 9.7 20.9 0.18 0.81 0.81 98 1001.9
20260506143013 11 44 6.4 11.3 0.18 0.81 0.81 98 1002.0
20260506142510 11 50 9.7 11.3 0.13 0.79 0.79 98 1002.3
20260506142008 11 66 11.3 12.9 0.13 0.79 0.79 98 1002.4
20260506141506 11 64 8.0 9.7 0.18 0.76 0.76 98 1002.6
20260506141004 11 71 6.4 9.7 0.13 0.74 0.74 98 1002.4
20260506140501 11 351 3.2 3.2 0.18 0.74 0.74 98 1002.7
20260506135957 11 52 8.0 8.0 0.13 0.71 0.71 98 1002.8
20260506135455 10 83 4.8 8.0 0.13 0.71 0.71 98 1002.6
20260506134951 11 75 6.4 9.7 0.13 0.71 0.71 98 1002.6
20260506134447 11 73 6.4 8.0 0.13 0.69 0.69 98 1002.8
20260506133944 11 72 3.2 3.2 0.13 0.69 0.69 98 1002.8
20260506133441 10 56 1.6 6.4 0.13 0.66 0.66 98 1002.9
20260506132938 10 69 6.4 8.0 0.18 0.66 0.66 98 1002.6
20260506132435 10 58 4.8 6.4 0.13 0.64 0.64 98 1002.4
20260506131932 10 64 6.4 6.4 0.18 0.64 0.64 98 1002.5
20260506131428 10 68 4.8 6.4 0.13 0.61 0.61 98 1002.6